[[{"header":{"parameterUnit":"m.s-1","parameterCategory":2,"la1":30.2991,"la2":30.254,"lo1":-89.0895,"lo2":-89.0444,"dy":0.0017,"dx":0.0017,"nx":28,"ny":28,"refTime":"2025-05-27T03:00:00:Z","depth":"0","parameterNumber":2,"parameterNumberName":"U-component_of_CURRENTS"},"data":[0,0,0,0,0,0,0,0,0,0,0,0,0,0,0,0,0,0,0,0,0,0,0,0,0,0,0,0,0,0,0,0,0,0,0,0,0,0,0,0,0,0,0,0,0,0,0,0,0,0,0,0,0,0,0,0,0,0,0.2089,0.209,0,0.2146,0.2147,0.2147,0.2113,0.2111,0.211,0.2108,0.2112,0.2113,0.2115,0,0,0,0,0,0,0,0,0,0,0,0,0,0.1943,0.1946,0.2089,0.209,0.2091,0.2146,0.2147,0.2147,0.2113,0.2111,0.2109,0.2108,0.2112,0.2113,0.2115,0,0,0,0,0,0,0,0,0,0,0,0,0,0.2002,0.1947,0.2089,0.2082,0.2082,0.2146,0.2147,0.2147,0.2113,0.2111,0.2109,0.2107,0.2111,0.2113,0.2115,0.2172,0,0,0.2122,0.2123,0,0,0,0,0,0,0,0,0.1999,0.2007,0.2082,0.2083,0.2083,0.2122,0.2097,0.2154,0.2114,0.2099,0.2108,0.2106,0.2114,0.2116,0.2128,0.2172,0.2172,0.2122,0.2123,0.2124,0.2125,0,0,0,0,0,0,0,0.1995,0.2004,0.2109,0.2083,0.2084,0.2074,0.208,0.2107,0.2115,0.21,0.2098,0.2109,0.2113,0.2126,0.2128,0.2172,0.2122,0.2124,0.2125,0.2126,0.2254,0.2256,0,0,0,0,0,0,0.1996,0.2001,0.2107,0.2111,0.2037,0.2079,0.2085,0.211,0.2116,0.2116,0.2111,0.2107,0.2124,0.2126,0.2128,0.2191,0.2124,0.2126,0.2128,0.2252,0.2255,0.2257,0,0,0,0,0,0,0.1993,0.2005,0.2105,0.2058,0.207,0.2084,0.2112,0.2112,0.2129,0.2125,0.2123,0.2127,0.2122,0.2125,0.2167,0.219,0.2127,0.2129,0.225,0.2253,0.2256,0.2319,0,0,0,0,0,0,0.1989,0.2004,0.2022,0.2059,0.2073,0.2165,0.2114,0.2115,0.214,0.2136,0.2139,0.2137,0.2121,0.2164,0.2169,0.2192,0.2131,0.2247,0.2251,0.2255,0.2314,0.2324,0.2332,0,0,0,0,0,0.1983,0.2024,0.2023,0.2036,0.2098,0.2168,0.2176,0.2174,0.2143,0.2175,0.2168,0.2137,0.2192,0.2169,0.2174,0.2198,0.2245,0.225,0.2255,0.231,0.2322,0.2332,0,0,0,0,0,0,0.197,0.2026,0.2025,0.208,0.2129,0.2163,0.219,0.2188,0.221,0.2196,0.2176,0.2176,0.2221,0.2212,0.2186,0.2248,0.221,0.2216,0.225,0.2261,0.227,0.2262,0.2133,0,0,0,0,0,0.1978,0.2023,0.2073,0.2119,0.2144,0.2168,0.2192,0.2199,0.2222,0.2228,0.2228,0.2228,0.2248,0.2255,0.2275,0.2318,0.2409,0.2334,0.2343,0.2351,0.2349,0.2562,0.2592,0.2273,0.2273,0.2273,0,0,0.1983,0.2022,0.2045,0.212,0.2149,0.2192,0.2178,0.223,0.225,0.2228,0.2255,0.227,0.2271,0.2313,0.2331,0.2304,0.2494,0.2357,0.2363,0.2357,0.2571,0.2602,0.263,0.2276,0.2275,0.2275,0,0,0.202,0.2056,0.2101,0.2144,0.2203,0.2223,0.2242,0.2288,0.2295,0.2343,0.2322,0.2356,0.2384,0.2389,0.2393,0.247,0.2543,0.2472,0.2502,0.271,0.2739,0.2765,0.2946,0.2987,0.2467,0.2467,0.2467,0,0.2019,0.208,0.2127,0.2176,0.2201,0.2236,0.2276,0.2305,0.2353,0.2375,0.2358,0.2438,0.2418,0.2482,0.2479,0.2488,0.2625,0.2457,0.2726,0.2753,0.2779,0.2958,0.3004,0.2471,0.247,0.247,0.247,0,0.2086,0.2126,0.2161,0.2223,0.2264,0.2314,0.2353,0.2391,0.24,0.2431,0.2514,0.2529,0.2574,0.2571,0.253,0.2683,0.273,0.2726,0.2702,0.2816,0.2996,0.3043,0.2476,0.2475,0.2473,0.2473,0,0,0.21,0.2186,0.2194,0.2216,0.2286,0.2327,0.2373,0.2438,0.2484,0.2542,0.2628,0.2638,0.2671,0.2677,0.2672,0.2804,0.3073,0.2829,0.2839,0.3014,0.3562,0.3524,0.3571,0.3152,0.3159,0.3166,0.3624,0,0.2131,0.2209,0.2243,0.23,0.2339,0.2375,0.2416,0.2477,0.2539,0.2639,0.2693,0.2776,0.2709,0.275,0.2877,0.303,0.3195,0.2949,0.3418,0.343,0.339,0.3623,0.3495,0.3887,0.3669,0.3677,0.3682,0,0.2178,0.2222,0.2278,0.2331,0.2351,0.2381,0.2462,0.2509,0.2645,0.2709,0.2825,0.2892,0.3049,0.2997,0.3367,0.3235,0.3395,0.3517,0.3539,0.3508,0.348,0.3733,0.3979,0.3857,0.3754,0.3748,0.3743,0,0.2168,0.224,0.2276,0.2298,0.2372,0.2388,0.2421,0.2527,0.2621,0.2777,0.2908,0.3087,0.3242,0.347,0.3662,0.3574,0.4114,0.4035,0.4166,0.4165,0.4142,0.4124,0.4322,0.4348,0.4347,0.4345,0.4344,0,0.2195,0.2227,0.2268,0.2294,0.2354,0.2377,0.2476,0.2537,0.2699,0.2869,0.295,0.3164,0.3385,0.3679,0.3813,0.4159,0.4267,0.4237,0.4311,0.4157,0.4137,0.4089,0.4003,0.4362,0.4359,0.4355,0.4352,0,0.2226,0.2234,0.23,0.2349,0.236,0.241,0.2534,0.2641,0.2751,0.2996,0.3071,0.3347,0.3703,0.392,0.4331,0.4389,0.4577,0.4759,0.4537,0.4572,0.4486,0.4407,0.4536,0.4412,0.4999,0.5002,0.5004,0,0.2287,0.2307,0.2361,0.243,0.2461,0.253,0.2608,0.2678,0.2826,0.3127,0.3289,0.3643,0.3903,0.4452,0.4631,0.4933,0.4738,0.4968,0.4727,0.4526,0.4496,0.4248,0.4113,0.4754,0.4753,0.4753,0.4753,0,0.2448,0.2438,0.2515,0.2595,0.2664,0.2741,0.2845,0.2948,0.3081,0.3264,0.357,0.3772,0.4231,0.4486,0.4815,0.4947,0.4707,0.4969,0.4867,0.4418,0.4067,0.3965,0.4379,0.475,0.4751,0.4751,0.4751,0.4751,0.2634,0.2696,0.2763,0.2833,0.2898,0.295,0.2987,0.312,0.3278,0.3495,0.372,0.3952,0.4303,0.4724,0.4817,0.4844,0.4746,0.4746,0.4712,0.4511,0.4232,0.4608,0.4964,0.4965,0.4966,0.4967,0.4968,0,0.2868,0.2899,0.3008,0.305,0.3096,0.3071,0.3163,0.3175,0.3296,0.3523,0.3722,0.406,0.4324,0.4526,0.4706,0.4607,0.4364,0.4508,0.4135,0.4046,0.4535,0.4355,0.4463,0.4463,0.4463,0.4463,0.4463,0.4463,0.3023,0.3139,0.3119,0.321,0.3217,0.3195,0.3201,0.3214,0.3312,0.3476,0.3618,0.381,0.413,0.4478,0.4474,0.4383,0.4018,0.3915,0.3858,0.4192,0.4208,0.4223,0.4033,0.4072,0.4071,0.3191,0.3185,0.318]},{"header":{"parameterUnit":"m.s-1","parameterCategory":2,"la1":30.2991,"la2":30.254,"lo1":-89.0895,"lo2":-89.0444,"dy":0.0017,"dx":0.0017,"nx":28,"ny":28,"refTime":"2025-05-27T03:00:00:Z","depth":"0","parameterNumber":3,"parameterNumberName":"V-component_of_CURRENTS"},"data":[0,0,0,0,0,0,0,0,0,0,0,0,0,0,0,0,0,0,0,0,0,0,0,0,0,0,0,0,0,0,0,0,0,0,0,0,0,0,0,0,0,0,0,0,0,0,0,0,0,0,0,0,0,0,0,0,0,0,-0.0337,-0.0336,0,-0.0312,-0.0312,-0.0312,-0.0321,-0.0322,-0.0322,-0.0323,-0.0281,-0.028,-0.0278,0,0,0,0,0,0,0,0,0,0,0,0,0,-0.0392,-0.039,-0.0337,-0.0336,-0.0336,-0.0312,-0.0312,-0.0312,-0.0321,-0.0322,-0.0322,-0.0323,-0.0282,-0.028,-0.0278,0,0,0,0,0,0,0,0,0,0,0,0,0,-0.0367,-0.039,-0.0337,-0.0338,-0.0338,-0.0312,-0.0312,-0.0312,-0.0321,-0.0322,-0.0322,-0.0323,-0.0282,-0.028,-0.0278,-0.0245,0,0,-0.027,-0.0269,0,0,0,0,0,0,0,0,-0.0369,-0.0365,-0.0338,-0.0338,-0.0338,-0.0321,-0.0316,-0.0289,-0.0321,-0.0327,-0.0323,-0.0324,-0.0292,-0.0289,-0.0283,-0.0243,-0.0242,-0.027,-0.0268,-0.0267,-0.0267,0,0,0,0,0,0,0,-0.037,-0.0366,-0.0327,-0.0338,-0.0337,-0.034,-0.0337,-0.0311,-0.0305,-0.0327,-0.0327,-0.0324,-0.0292,-0.0285,-0.0282,-0.0241,-0.027,-0.0268,-0.0266,-0.0265,-0.0202,-0.0201,0,0,0,0,0,0,-0.0372,-0.0368,-0.0328,-0.0326,-0.0356,-0.0338,-0.0335,-0.0325,-0.0305,-0.0303,-0.0324,-0.0325,-0.0289,-0.0285,-0.028,-0.0258,-0.0267,-0.0265,-0.0264,-0.0202,-0.0202,-0.0201,0,0,0,0,0,0,-0.0373,-0.0369,-0.0329,-0.0347,-0.0342,-0.0336,-0.0325,-0.0324,-0.032,-0.0303,-0.0301,-0.0321,-0.0289,-0.0284,-0.0257,-0.0256,-0.0264,-0.0262,-0.0202,-0.0202,-0.0201,-0.0203,0,0,0,0,0,0,-0.0375,-0.0369,-0.036,-0.0347,-0.0341,-0.0301,-0.0324,-0.0323,-0.0317,-0.0318,-0.03,-0.0297,-0.029,-0.026,-0.0254,-0.0253,-0.026,-0.0202,-0.0202,-0.0202,-0.0203,-0.0203,-0.0202,0,0,0,0,0,-0.0377,-0.0349,-0.0359,-0.0354,-0.0329,-0.03,-0.0296,-0.0296,-0.0316,-0.0299,-0.0298,-0.0298,-0.0254,-0.0257,-0.0251,-0.0249,-0.0203,-0.0202,-0.0202,-0.0203,-0.0203,-0.0202,0,0,0,0,0,0,-0.0353,-0.0347,-0.0358,-0.0327,-0.0314,-0.0301,-0.0282,-0.0294,-0.0281,-0.0285,-0.0284,-0.0279,-0.026,-0.0249,-0.0254,-0.023,-0.0232,-0.023,-0.0236,-0.0235,-0.0235,-0.0195,-0.0258,0,0,0,0,0,-0.0349,-0.0332,-0.0327,-0.0298,-0.0292,-0.0292,-0.0283,-0.0285,-0.0274,-0.027,-0.0261,-0.0256,-0.025,-0.0239,-0.0225,-0.02,-0.0138,-0.0198,-0.0198,-0.0197,-0.016,-0.0054,-0.0039,-0.02,-0.02,-0.02,0,0,-0.0328,-0.0324,-0.0312,-0.0294,-0.0284,-0.0275,-0.0287,-0.0264,-0.0264,-0.0265,-0.0251,-0.0248,-0.0244,-0.0225,-0.0216,-0.0216,-0.0126,-0.0197,-0.0197,-0.0159,-0.0052,-0.0035,-0.0021,-0.0199,-0.0199,-0.0199,0,0,-0.0284,-0.0277,-0.0258,-0.0252,-0.0243,-0.0246,-0.0243,-0.0233,-0.0234,-0.0218,-0.0233,-0.0219,-0.0204,-0.0198,-0.0198,-0.018,-0.0129,-0.0192,-0.0152,-0.005,-0.0035,-0.0021,0.0054,0.0075,-0.0191,-0.0191,-0.0191,0,-0.0261,-0.0249,-0.0243,-0.0232,-0.0228,-0.0238,-0.0226,-0.0224,-0.021,-0.0185,-0.021,-0.0163,-0.0187,-0.0147,-0.0168,-0.0177,-0.011,-0.0159,-0.0046,-0.003,-0.0015,0.0058,0.0082,-0.0191,-0.0191,-0.0191,-0.0191,0,-0.0219,-0.0215,-0.0196,-0.0199,-0.0186,-0.0171,-0.0178,-0.0159,-0.0169,-0.0156,-0.0106,-0.0116,-0.0069,-0.0109,-0.0146,-0.0066,-0.0051,-0.0058,-0.0041,0.0001,0.0075,0.0099,-0.0191,-0.0191,-0.0191,-0.0191,0,0,-0.0162,-0.017,-0.0167,-0.0163,-0.0176,-0.0148,-0.0143,-0.0113,-0.0042,-0.006,0.0039,-0.002,0.0014,0.0017,-0.001,0.0037,0.014,0.0027,0.0032,0.0112,0.0372,0.0318,0.0339,0.0167,0.0172,0.0176,0.0373,0,-0.0139,-0.012,-0.0134,-0.011,-0.0101,-0.0104,-0.0071,-0.0039,0.0007,0.0111,0.0095,0.0178,0.0051,0.0105,0.0123,0.0178,0.021,0.0088,0.0311,0.0318,0.0275,0.0368,0.029,0.0456,0.0397,0.0401,0.0404,0,-0.0114,-0.0102,-0.0081,-0.005,-0.0037,-0.0015,0.0084,0.0114,0.0229,0.0282,0.0355,0.039,0.0449,0.0344,0.0453,0.0395,0.0374,0.0381,0.039,0.037,0.0311,0.0408,0.0503,0.0235,0.0442,0.0439,0.0437,0,-0.0078,-0.0069,-0.0049,-0.0045,-0.0002,0.0037,0.0069,0.018,0.0295,0.0429,0.0573,0.0627,0.0741,0.0728,0.0695,0.0615,0.0838,0.0739,0.0661,0.0657,0.0652,0.0639,0.0531,0.0806,0.0806,0.0805,0.0805,0,-0.0055,-0.0024,-0.002,0.0006,0.0117,0.0098,0.0266,0.0329,0.0497,0.0708,0.0685,0.0901,0.0853,0.0958,0.0844,0.0866,0.0966,0.0715,0.0727,0.0641,0.0625,0.044,0.0292,0.0813,0.0811,0.081,0.0808,0,0.0038,-0.0004,0.0073,0.0118,0.0145,0.0248,0.0412,0.0566,0.0671,0.0963,0.1027,0.1198,0.133,0.125,0.1297,0.1115,0.0949,0.1044,0.0925,0.0916,0.0535,0.0391,0.0425,0.0271,0.1013,0.1014,0.1014,0,0.0114,0.0144,0.0217,0.0302,0.0344,0.0468,0.0588,0.067,0.0855,0.1172,0.1352,0.1548,0.1746,0.176,0.1487,0.1324,0.1035,0.1071,0.086,0.0543,0.0394,0.0319,0.0179,0.0851,0.085,0.0849,0.0848,0,0.0334,0.0344,0.043,0.0556,0.067,0.0818,0.0974,0.1138,0.1288,0.1524,0.188,0.2062,0.2052,0.1912,0.161,0.1419,0.0842,0.1042,0.0779,0.0321,0.0181,0.0028,0.0663,0.0839,0.084,0.0841,0.0841,0.0842,0.0573,0.0673,0.0743,0.0876,0.1001,0.1166,0.1309,0.1496,0.1777,0.2138,0.2266,0.2553,0.2244,0.1859,0.1502,0.0776,0.0821,0.0513,0.0392,0.0368,0.0127,0.0719,0.085,0.0851,0.0852,0.0853,0.0853,0,0.0852,0.09,0.1055,0.1187,0.1339,0.1332,0.1578,0.1729,0.2046,0.2395,0.2681,0.276,0.2232,0.1658,0.0728,0.0206,-0.0013,-0.0071,-0.0233,-0.0331,0.0265,0.0153,0.0061,0.0061,0.0061,0.0061,0.0062,0.0062,0.1006,0.116,0.1177,0.1441,0.1536,0.1731,0.1862,0.2104,0.2356,0.2805,0.3042,0.3223,0.2841,0.11,-0.0139,-0.0417,-0.0802,-0.0819,-0.0986,-0.0665,-0.0622,-0.0581,-0.0725,-0.0999,-0.1001,-0.1576,-0.1583,-0.1587]}],[{"header":{"parameterUnit":"m.s-1","parameterCategory":2,"la1":30.2991,"la2":30.254,"lo1":-89.0895,"lo2":-89.0444,"dy":0.0017,"dx":0.0017,"nx":28,"ny":28,"refTime":"2025-05-27T03:00:00:Z","depth":"2","parameterNumber":2,"parameterNumberName":"U-component_of_CURRENTS"},"data":[0,0,0,0,0,0,0,0,0,0,0,0,0,0,0,0,0,0,0,0,0,0,0,0,0,0,0,0,0,0,0,0,0,0,0,0,0,0,0,0,0,0,0,0,0,0,0,0,0,0,0,0,0,0,0,0,0,0,0.151,0.1511,0,0.1631,0.1633,0.1635,0.1666,0.1665,0.1664,0.1663,0.1725,0.1727,0.173,0,0,0,0,0,0,0,0,0,0,0,0,0,0.1387,0.1389,0.151,0.1511,0.1512,0.1631,0.1633,0.1635,0.1667,0.1665,0.1664,0.1663,0.1724,0.1727,0.173,0,0,0,0,0,0,0,0,0,0,0,0,0,0.1471,0.139,0.1509,0.1539,0.1543,0.1631,0.1633,0.1635,0.1667,0.1665,0.1664,0.1662,0.1723,0.1727,0.1731,0.1787,0,0,0.1743,0.1744,0,0,0,0,0,0,0,0,0.1466,0.1476,0.1534,0.1538,0.1542,0.1629,0.1612,0.1682,0.1667,0.1624,0.1663,0.1661,0.1686,0.1693,0.1725,0.179,0.1793,0.1743,0.1746,0.1747,0.1748,0,0,0,0,0,0,0,0.146,0.1471,0.1561,0.1535,0.154,0.1575,0.1585,0.1627,0.1664,0.1627,0.1629,0.1638,0.1688,0.1722,0.1727,0.1793,0.1743,0.1747,0.1749,0.175,0.1929,0.1932,0,0,0,0,0,0,0.1436,0.1466,0.1557,0.1565,0.1495,0.1578,0.1589,0.1605,0.1665,0.1672,0.1639,0.1638,0.1716,0.1722,0.1729,0.1797,0.1747,0.1751,0.1753,0.1927,0.193,0.1932,0,0,0,0,0,0,0.1433,0.1443,0.1552,0.1514,0.153,0.1581,0.16,0.1609,0.1658,0.1674,0.168,0.1679,0.1715,0.1723,0.1799,0.1799,0.1753,0.1756,0.1924,0.1928,0.1931,0.1934,0,0,0,0,0,0,0.1429,0.1442,0.1456,0.1513,0.1531,0.1619,0.1601,0.1612,0.1663,0.1664,0.171,0.1714,0.1714,0.1793,0.1802,0.1804,0.1759,0.1921,0.1926,0.193,0.1931,0.1938,0.1943,0,0,0,0,0,0.1425,0.1451,0.1456,0.1467,0.1545,0.1621,0.1636,0.1667,0.1666,0.1704,0.1741,0.1713,0.1826,0.18,0.181,0.1812,0.1919,0.1924,0.193,0.1929,0.1936,0.1943,0,0,0,0,0,0,0.1408,0.1458,0.1465,0.1504,0.1562,0.1625,0.1663,0.1686,0.1749,0.1746,0.1762,0.177,0.1833,0.1842,0.1811,0.1881,0.1861,0.1869,0.1857,0.1864,0.187,0.1842,0.1763,0,0,0,0,0,0.1409,0.1441,0.1496,0.1532,0.1561,0.1618,0.1655,0.1676,0.1732,0.1759,0.1797,0.1831,0.1865,0.188,0.1923,0.1972,0.2032,0.1978,0.1984,0.1988,0.1977,0.2116,0.2133,0.195,0.195,0.195,0,0,0.1408,0.1443,0.1459,0.1531,0.1578,0.1623,0.1639,0.17,0.1728,0.1755,0.1826,0.1867,0.1892,0.1942,0.1967,0.1944,0.2079,0.1995,0.1998,0.1984,0.2123,0.2141,0.2157,0.1954,0.1953,0.1952,0,0,0.1428,0.1463,0.1496,0.1544,0.1611,0.1645,0.1666,0.1746,0.1774,0.185,0.1867,0.192,0.1988,0.1998,0.2007,0.2079,0.2119,0.2089,0.2077,0.2213,0.2229,0.2243,0.2362,0.2387,0.2075,0.2075,0.2075,0,0.1429,0.1473,0.1521,0.1566,0.1602,0.1653,0.1696,0.1737,0.1829,0.1862,0.187,0.1991,0.2004,0.2048,0.2055,0.2084,0.2177,0.2039,0.2219,0.2235,0.225,0.2368,0.2396,0.2076,0.2076,0.2076,0.2076,0,0.1466,0.1507,0.1539,0.1599,0.1647,0.1701,0.1748,0.1803,0.1842,0.1882,0.197,0.2019,0.2092,0.2088,0.208,0.2174,0.2215,0.2224,0.2193,0.2268,0.2389,0.2417,0.2077,0.2077,0.2076,0.2076,0,0,0.1455,0.1545,0.1556,0.1588,0.1668,0.1712,0.176,0.1829,0.188,0.1945,0.2039,0.2057,0.211,0.2126,0.2145,0.221,0.238,0.2249,0.2256,0.2352,0.27,0.2538,0.2554,0.2442,0.2447,0.245,0.2749,0,0.1475,0.1549,0.1588,0.1655,0.1701,0.1753,0.18,0.1859,0.193,0.2041,0.2073,0.2184,0.2117,0.219,0.224,0.2348,0.2454,0.2299,0.2625,0.2634,0.2469,0.258,0.2378,0.2611,0.2777,0.2782,0.2785,0,0.1495,0.1544,0.1608,0.1691,0.1717,0.1757,0.1857,0.1917,0.2041,0.2111,0.2203,0.228,0.2364,0.2348,0.2534,0.2451,0.2584,0.2655,0.267,0.2528,0.2524,0.2562,0.2656,0.2834,0.283,0.2826,0.2823,0,0.1468,0.1558,0.1607,0.1636,0.1731,0.1768,0.1833,0.194,0.2022,0.2205,0.2314,0.2415,0.2535,0.2659,0.2729,0.2703,0.2956,0.2963,0.2952,0.2944,0.2832,0.2803,0.318,0.318,0.3179,0.3178,0.3177,0,0.148,0.1518,0.1599,0.1627,0.1701,0.1772,0.1886,0.1964,0.2125,0.2245,0.2373,0.2493,0.2632,0.2761,0.2825,0.2923,0.3053,0.2969,0.3014,0.2826,0.2794,0.3018,0.2995,0.3189,0.3187,0.3185,0.3183,0,0.1463,0.1506,0.1567,0.1659,0.1694,0.1758,0.1925,0.2009,0.2165,0.2348,0.243,0.2622,0.2789,0.2875,0.3103,0.3057,0.3167,0.32,0.2935,0.2938,0.3066,0.304,0.3271,0.3268,0.3265,0.3263,0.3261,0,0.1477,0.1502,0.1589,0.1634,0.1683,0.1797,0.1874,0.2024,0.2122,0.2393,0.247,0.2715,0.2842,0.3039,0.304,0.315,0.321,0.3011,0.2891,0.3056,0.3079,0.3057,0.3036,0.2793,0.2787,0.2783,0.2779,0,0.1504,0.1519,0.1565,0.1636,0.1708,0.1808,0.193,0.2001,0.2185,0.2347,0.255,0.2691,0.2884,0.2879,0.2953,0.2959,0.2941,0.2919,0.3248,0.2734,0.2611,0.2629,0.2625,0.2739,0.2743,0.2746,0.2748,0.275,0.1525,0.1536,0.1568,0.1624,0.1718,0.1779,0.1827,0.1961,0.21,0.2245,0.2428,0.2544,0.2647,0.2642,0.2621,0.2599,0.28,0.2703,0.2717,0.2736,0.256,0.2431,0.2496,0.2498,0.2501,0.2503,0.2504,0,0.1494,0.1492,0.1557,0.1588,0.1642,0.1719,0.1821,0.184,0.195,0.2088,0.2213,0.2094,0.2158,0.2275,0.2223,0.2242,0.221,0.2145,0.2126,0.2169,0.2206,0.2,0.1791,0.1788,0.1786,0.1783,0,0,0.1464,0.1436,0.1424,0.1456,0.1526,0.1556,0.1588,0.1654,0.1734,0.174,0.1773,0.1904,0.2152,0.1889,0.1919,0.1871,0.1972,0.1778,0.2359,0.2375,0.2408,0.2548,0.2281,0,0,0,0,0]},{"header":{"parameterUnit":"m.s-1","parameterCategory":2,"la1":30.2991,"la2":30.254,"lo1":-89.0895,"lo2":-89.0444,"dy":0.0017,"dx":0.0017,"nx":28,"ny":28,"refTime":"2025-05-27T03:00:00:Z","depth":"2","parameterNumber":3,"parameterNumberName":"V-component_of_CURRENTS"},"data":[0,0,0,0,0,0,0,0,0,0,0,0,0,0,0,0,0,0,0,0,0,0,0,0,0,0,0,0,0,0,0,0,0,0,0,0,0,0,0,0,0,0,0,0,0,0,0,0,0,0,0,0,0,0,0,0,0,0,-0.0596,-0.0597,0,-0.0614,-0.0614,-0.0614,-0.0643,-0.0644,-0.0645,-0.0645,-0.0601,-0.06,-0.0598,0,0,0,0,0,0,0,0,0,0,0,0,0,-0.0578,-0.0579,-0.0596,-0.0597,-0.0597,-0.0614,-0.0614,-0.0614,-0.0643,-0.0644,-0.0645,-0.0646,-0.0602,-0.06,-0.0598,0,0,0,0,0,0,0,0,0,0,0,0,0,-0.0589,-0.0579,-0.0596,-0.0615,-0.0617,-0.0614,-0.0614,-0.0614,-0.0643,-0.0644,-0.0645,-0.0646,-0.0603,-0.06,-0.0597,-0.056,0,0,-0.0589,-0.0588,0,0,0,0,0,0,0,0,-0.0588,-0.0589,-0.0612,-0.0613,-0.0616,-0.0629,-0.0592,-0.0593,-0.0643,-0.0631,-0.0645,-0.0646,-0.0605,-0.0602,-0.0602,-0.0558,-0.0556,-0.0589,-0.0587,-0.0586,-0.0585,0,0,0,0,0,0,0,-0.0587,-0.0588,-0.0602,-0.0612,-0.0614,-0.0619,-0.0621,-0.0592,-0.061,-0.0632,-0.0635,-0.0639,-0.0606,-0.0604,-0.0601,-0.0555,-0.0589,-0.0586,-0.0585,-0.0584,-0.0527,-0.0527,0,0,0,0,0,0,-0.0588,-0.0588,-0.0601,-0.0602,-0.0606,-0.0619,-0.0621,-0.0622,-0.0612,-0.0612,-0.0638,-0.064,-0.0609,-0.0604,-0.0599,-0.0586,-0.0586,-0.0583,-0.0582,-0.0527,-0.0527,-0.0527,0,0,0,0,0,0,-0.0587,-0.0588,-0.0601,-0.0597,-0.0599,-0.0618,-0.0619,-0.0622,-0.0624,-0.0617,-0.0616,-0.0637,-0.0609,-0.0603,-0.0573,-0.0583,-0.0582,-0.058,-0.0527,-0.0527,-0.0527,-0.0539,0,0,0,0,0,0,-0.0586,-0.0588,-0.0586,-0.0597,-0.0599,-0.059,-0.0618,-0.0622,-0.0625,-0.0628,-0.0615,-0.0612,-0.061,-0.0577,-0.057,-0.058,-0.0578,-0.0527,-0.0527,-0.0527,-0.0538,-0.0539,-0.054,0,0,0,0,0,-0.0586,-0.0567,-0.0585,-0.0587,-0.0597,-0.0589,-0.0589,-0.0606,-0.0624,-0.0613,-0.0611,-0.0613,-0.0575,-0.0574,-0.0566,-0.0575,-0.0527,-0.0527,-0.0527,-0.0538,-0.0539,-0.054,0,0,0,0,0,0,-0.0551,-0.0569,-0.0589,-0.0577,-0.0584,-0.0594,-0.0585,-0.0601,-0.0593,-0.0597,-0.0596,-0.0592,-0.0577,-0.0566,-0.0566,-0.0562,-0.0558,-0.0556,-0.0569,-0.0569,-0.0571,-0.0605,-0.0575,0,0,0,0,0,-0.0545,-0.0541,-0.056,-0.055,-0.0552,-0.0571,-0.0571,-0.0584,-0.0582,-0.0581,-0.0573,-0.0571,-0.057,-0.0561,-0.055,-0.0529,-0.0524,-0.0536,-0.0537,-0.0538,-0.0562,-0.0539,-0.054,-0.0528,-0.0528,-0.0528,0,0,-0.053,-0.054,-0.0538,-0.0543,-0.0551,-0.0548,-0.0572,-0.0567,-0.0574,-0.0573,-0.0564,-0.0564,-0.0564,-0.0556,-0.0549,-0.0548,-0.0537,-0.0539,-0.054,-0.0564,-0.0539,-0.0541,-0.0542,-0.0528,-0.0528,-0.0528,0,0,-0.0493,-0.0506,-0.0492,-0.0497,-0.0509,-0.0522,-0.0521,-0.053,-0.0543,-0.0535,-0.055,-0.0559,-0.0534,-0.0554,-0.0559,-0.0555,-0.0542,-0.0549,-0.058,-0.0556,-0.0557,-0.0558,-0.0546,-0.0546,-0.055,-0.055,-0.055,0,-0.0477,-0.0469,-0.0484,-0.0474,-0.0481,-0.0511,-0.0503,-0.0516,-0.0516,-0.0531,-0.0531,-0.0548,-0.0545,-0.0568,-0.0583,-0.056,-0.0543,-0.0574,-0.0558,-0.0558,-0.0559,-0.0547,-0.0547,-0.0551,-0.0551,-0.0551,-0.0551,0,-0.0435,-0.0433,-0.0421,-0.043,-0.0435,-0.0427,-0.0457,-0.0466,-0.0491,-0.0515,-0.0539,-0.0546,-0.0557,-0.057,-0.0581,-0.0596,-0.0581,-0.0558,-0.0555,-0.0561,-0.0548,-0.0547,-0.0552,-0.0551,-0.0551,-0.0551,0,0,-0.0391,-0.0393,-0.0392,-0.0399,-0.0415,-0.0416,-0.0433,-0.0463,-0.0475,-0.0507,-0.0513,-0.0571,-0.0585,-0.0595,-0.0606,-0.062,-0.0614,-0.06,-0.0599,-0.0591,-0.0564,-0.0629,-0.0634,-0.0576,-0.0576,-0.0576,-0.055,0,-0.036,-0.0339,-0.0351,-0.0344,-0.0342,-0.0381,-0.0392,-0.0428,-0.0453,-0.0455,-0.0519,-0.0505,-0.0588,-0.0567,-0.061,-0.0611,-0.0614,-0.0624,-0.0559,-0.0558,-0.0616,-0.0637,-0.0574,-0.0553,-0.055,-0.0549,-0.0549,0,-0.0323,-0.0317,-0.0306,-0.032,-0.0322,-0.0326,-0.0361,-0.0366,-0.04,-0.0408,-0.045,-0.0457,-0.0515,-0.0528,-0.0603,-0.0601,-0.059,-0.06,-0.0597,-0.0661,-0.0623,-0.0547,-0.0552,-0.0548,-0.0548,-0.0548,-0.0548,0,-0.0303,-0.0291,-0.0288,-0.0291,-0.0306,-0.032,-0.0327,-0.0363,-0.0343,-0.0346,-0.0299,-0.0402,-0.0367,-0.0447,-0.0549,-0.0529,-0.0612,-0.0557,-0.061,-0.0613,-0.0556,-0.0555,-0.0558,-0.0558,-0.0558,-0.0558,-0.0558,0,-0.0275,-0.0278,-0.0278,-0.028,-0.0267,-0.0291,-0.0271,-0.029,-0.0263,-0.0207,-0.0254,-0.0217,-0.0332,-0.0404,-0.0515,-0.0624,-0.0584,-0.0639,-0.062,-0.0559,-0.0559,-0.0553,-0.0553,-0.0557,-0.0557,-0.0558,-0.0558,0,-0.0273,-0.0271,-0.0265,-0.0268,-0.026,-0.0253,-0.0199,-0.0172,-0.0147,-0.0054,-0.0021,-0.0044,-0.0129,-0.0305,-0.0404,-0.0528,-0.0648,-0.067,-0.0624,-0.0602,-0.0652,-0.0653,-0.0677,-0.0679,-0.0681,-0.0683,-0.0684,0,-0.0285,-0.0281,-0.025,-0.0221,-0.0223,-0.019,-0.0152,-0.012,-0.0061,0.0038,0.0097,0.0083,0.0086,-0.0171,-0.0407,-0.0615,-0.0649,-0.0681,-0.0642,-0.0691,-0.0668,-0.0666,-0.0664,-0.0547,-0.0547,-0.0547,-0.0547,0,-0.031,-0.0295,-0.0273,-0.02,-0.0155,-0.0079,-0.0015,0.0074,0.0146,0.0269,0.0389,0.0419,0.0201,0.0006,-0.0331,-0.0486,-0.0672,-0.0687,-0.0725,-0.0558,-0.0575,-0.0551,-0.0551,-0.0548,-0.0548,-0.0548,-0.0548,-0.0548,-0.033,-0.0305,-0.0253,-0.0173,-0.0099,0.0034,0.0156,0.0272,0.0447,0.0654,0.0593,0.0666,0.0374,0.0008,-0.0301,-0.0619,-0.0594,-0.0667,-0.0663,-0.0659,-0.068,-0.0703,-0.0704,-0.0704,-0.0705,-0.0706,-0.0706,0,-0.0346,-0.0296,-0.0226,-0.0103,0.0031,0.0059,0.0254,0.0423,0.07,0.0814,0.0939,0.0711,0.0479,0.0124,-0.0296,-0.0564,-0.056,-0.0668,-0.0577,-0.0575,-0.0574,-0.0588,-0.0588,-0.0588,-0.0588,-0.0589,0,0,-0.036,-0.0285,-0.0221,-0.0003,0.0111,0.0332,0.0489,0.0736,0.0886,0.1077,0.1109,0.1019,0.06,0.0313,-0.0075,-0.0303,-0.0371,-0.0363,-0.043,-0.0273,-0.0267,-0.0552,-0.0571,0,0,0,0,0]}],[{"header":{"parameterUnit":"m.s-1","parameterCategory":2,"la1":30.2991,"la2":30.254,"lo1":-89.0895,"lo2":-89.0444,"dy":0.0017,"dx":0.0017,"nx":28,"ny":28,"refTime":"2025-05-27T03:00:00:Z","depth":"4","parameterNumber":2,"parameterNumberName":"U-component_of_CURRENTS"},"data":[0,0,0,0,0,0,0,0,0,0,0,0,0,0,0,0,0,0,0,0,0,0,0,0,0,0,0,0,0,0,0,0,0,0,0,0,0,0,0,0,0,0,0,0,0,0,0,0,0,0,0,0,0,0,0,0,0,0,0.0696,0.0697,0,0.0776,0.0777,0.0778,0.0816,0.0816,0.0816,0.0816,0.0889,0.089,0.0892,0,0,0,0,0,0,0,0,0,0,0,0,0,0.0609,0.0611,0.0696,0.0697,0.0698,0.0776,0.0777,0.0778,0.0816,0.0816,0.0816,0.0816,0.0888,0.089,0.0892,0,0,0,0,0,0,0,0,0,0,0,0,0,0.0664,0.0611,0.0696,0.0727,0.073,0.0776,0.0777,0.0778,0.0816,0.0816,0.0816,0.0816,0.0887,0.089,0.0893,0.0911,0,0,0.0902,0.0903,0,0,0,0,0,0,0,0,0.0661,0.0667,0.0721,0.0725,0.0729,0.0786,0.0773,0.0822,0.0816,0.0784,0.0816,0.0816,0.0854,0.0859,0.0874,0.0914,0.0917,0.0902,0.0904,0.0905,0.0906,0,0,0,0,0,0,0,0.0657,0.0664,0.0728,0.0722,0.0727,0.0748,0.0755,0.0783,0.0817,0.0786,0.0789,0.0799,0.0856,0.0871,0.0876,0.0918,0.0902,0.0904,0.0906,0.0907,0.1034,0.1036,0,0,0,0,0,0,0.0646,0.066,0.0725,0.073,0.0694,0.0749,0.0758,0.0768,0.0817,0.0825,0.0799,0.08,0.0867,0.0873,0.0879,0.0962,0.0905,0.0908,0.0909,0.1032,0.1034,0.1036,0,0,0,0,0,0,0.0644,0.0651,0.0722,0.0697,0.0707,0.0751,0.0762,0.0769,0.0812,0.0827,0.0834,0.0837,0.0867,0.0875,0.0928,0.0962,0.0909,0.0911,0.1031,0.1033,0.1035,0.109,0,0,0,0,0,0,0.0641,0.065,0.0669,0.0696,0.0708,0.0763,0.0762,0.0771,0.0816,0.082,0.0862,0.0867,0.0867,0.0923,0.0931,0.0965,0.0914,0.1028,0.1032,0.1035,0.1086,0.1094,0.1101,0,0,0,0,0,0.0637,0.0654,0.0669,0.0678,0.0728,0.0764,0.0773,0.0803,0.0819,0.0842,0.0873,0.0867,0.0948,0.0927,0.0935,0.0972,0.1027,0.1031,0.1034,0.1083,0.1092,0.11,0,0,0,0,0,0,0.0626,0.066,0.0678,0.0705,0.0741,0.0771,0.0797,0.0822,0.0867,0.0877,0.0892,0.0899,0.0954,0.096,0.0937,0.1017,0.0985,0.0991,0.1019,0.1029,0.1036,0.105,0.0916,0,0,0,0,0,0.0633,0.0655,0.0692,0.0717,0.0735,0.0775,0.08,0.0824,0.0859,0.088,0.0916,0.0947,0.0972,0.0998,0.1019,0.1072,0.1076,0.1099,0.1107,0.1113,0.113,0.1182,0.1195,0.1048,0.1048,0.1048,0,0,0.0636,0.0658,0.0672,0.0717,0.0746,0.0783,0.0791,0.0835,0.0875,0.088,0.0955,0.0975,0.099,0.1041,0.1067,0.1055,0.115,0.1117,0.1123,0.1137,0.1187,0.1201,0.1214,0.1051,0.105,0.105,0,0,0.0646,0.0673,0.0697,0.073,0.0781,0.0804,0.0825,0.088,0.0915,0.0978,0.0991,0.1042,0.1087,0.1114,0.1127,0.1192,0.1182,0.1196,0.1255,0.1304,0.1317,0.1328,0.1321,0.1331,0.1207,0.1207,0.1207,0,0.0648,0.0683,0.0712,0.0747,0.0772,0.0818,0.0852,0.0897,0.0969,0.1007,0.1006,0.1098,0.1121,0.1181,0.1211,0.1211,0.1219,0.1217,0.1314,0.1326,0.1336,0.1327,0.1337,0.121,0.1209,0.1209,0.1209,0,0.0676,0.0713,0.0729,0.0785,0.082,0.0855,0.0911,0.0971,0.1015,0.1061,0.1139,0.1173,0.1236,0.1245,0.1253,0.1343,0.1314,0.1311,0.1291,0.1355,0.1339,0.1349,0.1214,0.1213,0.1212,0.1211,0,0,0.065,0.073,0.074,0.0772,0.084,0.0871,0.0943,0.1016,0.1078,0.1146,0.1221,0.1283,0.1325,0.1345,0.1365,0.1412,0.1491,0.1409,0.141,0.1399,0.1569,0.15,0.1504,0.1512,0.1514,0.1517,0.1516,0,0.0662,0.0722,0.0761,0.0826,0.0858,0.0919,0.0978,0.1057,0.1126,0.1218,0.1271,0.1355,0.1355,0.1407,0.1455,0.1488,0.1526,0.1489,0.1512,0.1512,0.1443,0.1517,0.1526,0.1523,0.1526,0.1527,0.1528,0,0.067,0.0712,0.0766,0.0845,0.0865,0.0915,0.1016,0.1086,0.1213,0.1273,0.1368,0.1425,0.1527,0.1516,0.1598,0.1577,0.1595,0.1598,0.1598,0.1529,0.1465,0.1455,0.1546,0.1545,0.1544,0.1542,0.1541,0,0.0625,0.0711,0.075,0.0778,0.0876,0.0923,0.099,0.1108,0.1184,0.1343,0.1407,0.1515,0.1589,0.1633,0.168,0.1658,0.1741,0.1701,0.1638,0.1629,0.1663,0.1651,0.1767,0.1767,0.1767,0.1767,0.1768,0,0.0605,0.064,0.0741,0.0765,0.0829,0.0913,0.1009,0.1095,0.1234,0.1329,0.1452,0.1529,0.1635,0.1699,0.1709,0.1709,0.1771,0.1666,0.1647,0.1679,0.167,0.1667,0.1655,0.1767,0.1767,0.1767,0.1767,0,0.0542,0.0605,0.0659,0.0768,0.0808,0.0863,0.1018,0.1091,0.1228,0.1356,0.1422,0.1575,0.1665,0.1721,0.1796,0.1743,0.1752,0.1737,0.1754,0.1732,0.1583,0.1574,0.1642,0.1641,0.1639,0.1638,0.1636,0,0.051,0.0531,0.0646,0.069,0.0744,0.0851,0.0919,0.1076,0.1155,0.1366,0.1405,0.1568,0.1655,0.1672,0.1747,0.1753,0.1741,0.1712,0.1665,0.1607,0.1581,0.1575,0.1569,0.1634,0.1633,0.1633,0.1633,0,0.0448,0.0492,0.0541,0.063,0.0706,0.079,0.0904,0.0959,0.1142,0.127,0.1391,0.148,0.1568,0.1632,0.167,0.1668,0.1713,0.1694,0.1696,0.1651,0.1597,0.1572,0.1568,0.1627,0.1628,0.1628,0.1629,0,0.0396,0.0412,0.0486,0.056,0.0649,0.0709,0.0787,0.0896,0.0997,0.1225,0.1265,0.1424,0.1561,0.1589,0.1618,0.1629,0.1591,0.1519,0.1529,0.1536,0.1509,0.1425,0.1406,0,0,0,0,0,0.0347,0.036,0.0419,0.0498,0.0585,0.0638,0.0762,0.0846,0.1017,0.107,0.1176,0.1269,0.1373,0.145,0.1438,0.1549,0.1575,0.1527,0.149,0.1596,0.1602,0.1584,0,0,0,0,0,0,0.031,0.0351,0.0383,0.0432,0.048,0.0561,0.0636,0.0753,0.0795,0.0978,0.1037,0.1181,0.1285,0.1364,0.1409,0.1431,0.138,0.1627,0.1624,0.1592,0.1598,0.1603,0.1587,0,0,0,0,0]},{"header":{"parameterUnit":"m.s-1","parameterCategory":2,"la1":30.2991,"la2":30.254,"lo1":-89.0895,"lo2":-89.0444,"dy":0.0017,"dx":0.0017,"nx":28,"ny":28,"refTime":"2025-05-27T03:00:00:Z","depth":"4","parameterNumber":3,"parameterNumberName":"V-component_of_CURRENTS"},"data":[0,0,0,0,0,0,0,0,0,0,0,0,0,0,0,0,0,0,0,0,0,0,0,0,0,0,0,0,0,0,0,0,0,0,0,0,0,0,0,0,0,0,0,0,0,0,0,0,0,0,0,0,0,0,0,0,0,0,0.0129,0.0129,0,0.0063,0.0063,0.0062,0.0041,0.0042,0.0042,0.0042,-0.0052,-0.0055,-0.0058,0,0,0,0,0,0,0,0,0,0,0,0,0,0.0181,0.0181,0.0129,0.0129,0.0128,0.0063,0.0062,0.0062,0.0041,0.0042,0.0042,0.0043,-0.0051,-0.0055,-0.0058,0,0,0,0,0,0,0,0,0,0,0,0,0,0.0141,0.0181,0.013,0.0111,0.0108,0.0064,0.0062,0.0061,0.0041,0.0042,0.0042,0.0043,-0.005,-0.0054,-0.0059,-0.0097,0,0,-0.0072,-0.0074,0,0,0,0,0,0,0,0,0.0143,0.0139,0.0114,0.0112,0.0109,0.0062,0.0046,0.0007,0.0041,0.0066,0.0042,0.0043,-0.0017,-0.0024,-0.0038,-0.0102,-0.0106,-0.0072,-0.0075,-0.0077,-0.0078,0,0,0,0,0,0,0,0.0146,0.0141,0.0102,0.0113,0.011,0.0086,0.0081,0.0038,0.0021,0.0064,0.0062,0.0056,-0.0018,-0.0034,-0.0041,-0.0107,-0.0072,-0.0076,-0.0079,-0.008,-0.0203,-0.0204,0,0,0,0,0,0,0.0158,0.0144,0.0105,0.0101,0.0129,0.0085,0.008,0.0076,0.0022,0.0015,0.0056,0.0055,-0.0027,-0.0036,-0.0044,-0.0059,-0.0077,-0.0081,-0.0083,-0.0202,-0.0203,-0.0204,0,0,0,0,0,0,0.0159,0.0155,0.0107,0.0121,0.0114,0.0084,0.0079,0.0074,0.0056,0.0016,0.0008,0.0043,-0.0027,-0.0038,-0.0085,-0.0064,-0.0083,-0.0087,-0.0202,-0.0203,-0.0204,-0.0112,0,0,0,0,0,0,0.0161,0.0156,0.0155,0.0122,0.0113,0.0084,0.0079,0.0073,0.0052,0.0051,0.0002,-0.0005,-0.0027,-0.0079,-0.009,-0.0071,-0.009,-0.0201,-0.0202,-0.0203,-0.0114,-0.0109,-0.0106,0,0,0,0,0,0.0163,0.0161,0.0156,0.0151,0.0114,0.0084,0.0077,0.0057,0.0051,0.0042,0.0007,-0.0004,-0.0094,-0.0083,-0.0096,-0.0077,-0.02,-0.0202,-0.0203,-0.0116,-0.011,-0.0106,0,0,0,0,0,0,0.0177,0.0158,0.0151,0.0142,0.0117,0.0081,0.0072,0.0053,0.0018,0.0018,-0.0021,-0.0032,-0.0064,-0.0097,-0.0084,-0.0121,-0.0146,-0.015,-0.0076,-0.0071,-0.0067,-0.0035,-0.0094,0,0,0,0,0,0.0181,0.0178,0.015,0.0141,0.0133,0.01,0.0085,0.007,0.0037,0.0022,-0.0014,-0.0052,-0.0082,-0.0097,-0.0138,-0.0162,-0.0205,-0.016,-0.0156,-0.0152,-0.0137,-0.0205,-0.0204,-0.0209,-0.0209,-0.0209,0,0,0.0183,0.0172,0.0169,0.0144,0.0125,0.0129,0.0092,0.0072,0.008,0.0015,0.0003,-0.0048,-0.0091,-0.0111,-0.0127,-0.0132,-0.0174,-0.0153,-0.0149,-0.0137,-0.0206,-0.0205,-0.0205,-0.021,-0.021,-0.0209,0,0,0.0197,0.0177,0.0187,0.0175,0.0153,0.0138,0.0133,0.0095,0.0085,0.0054,0.002,-0.0019,-0.0078,-0.009,-0.0105,-0.011,-0.0158,-0.0127,-0.0067,-0.0132,-0.0132,-0.0132,-0.018,-0.0185,-0.0115,-0.0114,-0.0114,0,0.0201,0.0219,0.0182,0.0194,0.0199,0.0149,0.0171,0.015,0.01,0.0092,0.0061,-0.002,-0.0058,-0.0061,-0.0056,-0.0094,-0.0143,-0.0073,-0.0123,-0.0125,-0.0126,-0.0176,-0.0183,-0.011,-0.0111,-0.0111,-0.0111,0,0.0233,0.0249,0.0252,0.0265,0.0256,0.0261,0.0239,0.0222,0.0194,0.0167,0.0129,0.0063,0.0018,0.0003,-0.0023,-0.0042,-0.0078,-0.0115,-0.0125,-0.0119,-0.0173,-0.0182,-0.0104,-0.0106,-0.0107,-0.0108,0,0,0.0244,0.0275,0.0279,0.0305,0.0302,0.0296,0.0313,0.0309,0.0307,0.025,0.0238,0.0192,0.0134,0.0112,0.0064,0.0021,-0.003,-0.0042,-0.0048,-0.007,-0.0172,-0.016,-0.0169,-0.0084,-0.0085,-0.0086,-0.0202,0,0.029,0.0344,0.0346,0.0396,0.0425,0.0402,0.0416,0.0398,0.0361,0.0324,0.0266,0.0218,0.0184,0.0146,0.0104,-0.0015,-0.005,0.0006,-0.0192,-0.0197,-0.0171,-0.0177,-0.0089,-0.0209,-0.0211,-0.0212,-0.0213,0,0.0335,0.0368,0.0435,0.0475,0.0483,0.05,0.0507,0.051,0.0459,0.0421,0.0373,0.0295,0.0235,0.0182,0.0033,0.0063,-0.0034,-0.0118,-0.0126,-0.0149,-0.0201,-0.0223,-0.023,-0.0228,-0.0227,-0.0226,-0.0225,0,0.0373,0.0434,0.0495,0.0509,0.0537,0.0558,0.0566,0.0538,0.053,0.047,0.0426,0.0346,0.027,0.0151,-0.0008,-0.0005,-0.0193,-0.0219,-0.0287,-0.0288,-0.0302,-0.0301,-0.0315,-0.0315,-0.0315,-0.0315,-0.0314,0,0.0429,0.047,0.0516,0.0542,0.0583,0.0597,0.0616,0.0602,0.0574,0.0553,0.0471,0.0417,0.025,0.0121,-0.0005,-0.017,-0.0194,-0.0271,-0.0316,-0.0262,-0.0255,-0.0308,-0.0306,-0.0319,-0.0318,-0.0317,-0.0316,0,0.0438,0.0489,0.0537,0.0584,0.0601,0.0616,0.0639,0.0643,0.0619,0.0584,0.056,0.0441,0.0279,0.0119,-0.0097,-0.0174,-0.033,-0.0378,-0.0296,-0.0336,-0.0378,-0.037,-0.0464,-0.0464,-0.0465,-0.0465,-0.0465,0,0.0441,0.0475,0.0535,0.0559,0.0578,0.0613,0.0635,0.0651,0.0654,0.0597,0.0572,0.0425,0.0329,0.0048,-0.0116,-0.0341,-0.0366,-0.0434,-0.04,-0.0358,-0.0394,-0.0385,-0.0376,-0.0466,-0.0466,-0.0466,-0.0466,0,0.0415,0.0438,0.0472,0.0531,0.0571,0.0607,0.0646,0.0655,0.0669,0.0646,0.0569,0.0433,0.0253,0.0052,-0.0125,-0.0284,-0.0384,-0.0439,-0.0439,-0.0407,-0.0362,-0.0395,-0.0386,-0.0468,-0.0468,-0.0468,-0.0467,0,0.0368,0.0382,0.0445,0.0492,0.0546,0.0598,0.0618,0.0638,0.065,0.0616,0.0587,0.0413,0.0314,0.008,-0.0085,-0.0238,-0.027,-0.03,-0.0308,-0.0308,-0.0221,-0.0139,-0.021,0,0,0,0,0,0.0328,0.0369,0.0405,0.0477,0.0531,0.0572,0.0628,0.0651,0.0676,0.063,0.062,0.0462,0.0226,0.0114,-0.0038,-0.0105,-0.0307,-0.0287,-0.0348,-0.0477,-0.0475,-0.0398,0,0,0,0,0,0,0.031,0.0355,0.0399,0.0466,0.0507,0.0575,0.0615,0.0628,0.061,0.0608,0.0478,0.0434,0.0191,0.0305,-0.0042,-0.009,-0.0144,-0.0398,-0.04,-0.0478,-0.0476,-0.0475,-0.0395,0,0,0,0,0]}]]